www.pogodaiklimat.ru

Погода и климат >> Архив погоды >> Россия >> Московская область >> Можайск


АРХИВ ПОГОДЫ в Можайске

Время (UTC), дата Ветер
(напр.,м/с)
 
Видим.   Явления Облачность Т
(С)
Тd
(С)
f
(%)
Тe
(С)
Тes
(С)
Комфортность P
(гПа)
Po
(гПа)
Тmin
(С)
Tmax
(С)
R
(мм)
R24
(мм)
S
(см)
18 10.09 штиль 0 10 км 4/3 600 м
[Sc Ci sp]
+13.6 +12.7 94 +13 +13 1028.0 1005.8 +24.7
21 10.09 штиль 0 10 км ясно +11.0 +10.8 99 +10 +10 1028.6 1006.1
00 11.09 штиль 0 10 км ясно +9.5 +9.4 99 +9 +9 1029.0 1006.4
03 11.09 СЗ 1 10 км ясно +8.3 +8.2 99 +7 +7 1029.5 1006.8 +8.2
06 11.09 Ю 1 10 км 6/0
[Ci]
+17.1 +12.0 72 +18 +21 1029.2 1007.2 +8.2
09 11.09 Ю 2 10 км 8/4 600 м
[Sc Ac trans Ci sp]
+22.9 +11.4 48 +25 +28 комфорт 1029.0 1007.4
12 11.09 Ю 3 10 км 9/4 600 м
[Sc Ci sp]
+25.5 +6.0 29 +25 +27 комфорт 1028.4 1007.0
15 11.09 Ю 2 10 км 9/1 600 м
[Sc Ci sp]
+23.0 +7.1 36 +24 +24 комфорт 1027.6 1006.1
18 11.09 Ю 2 10 км 3/1 600 м
[Sc Ci sp]
+15.5 +9.1 66 +15 +15 1028.4 1006.3 +26.1
21 11.09 Ю 2 10 км ясно +12.5 +8.6 77 +12 +12 1028.5 1006.2
00 12.09 Ю 2 10 км ясно +10.8 +8.1 83 +9 +9 1028.5 1006.0
03 12.09 штиль 0 10 км ясно +7.9 +7.5 97 +7 +7 1028.7 1006.0 +7.9
06 12.09 Ю 1 10 км 8/3 600 м
[Sc Ac trans Ci sp]
+15.0 +9.6 70 +16 +17 1027.9 1005.8 +7.7
09 12.09 Ю 2 10 км 3/0
[Ci]
+24.5 +8.6 36 +25 +32 комфорт 1026.5 1005.1
12 12.09 Ю 4
{10}
10 км 6/0
[Ci]
+25.4 +4.9 27 +25 +28 комфорт 1025.3 1003.9
15 12.09 Ю 2 10 км 8/3 600 м
[Sc Ci fib]
+22.5 +6.6 36 +23 +23 комфорт 1024.1 1002.6
18 12.09 Ю 2 10 км ясно +15.7 +8.2 61 +16 +16 1024.2 1002.2 +25.8
21 12.09 Ю 3 10 км ясно +14.8 +7.7 62 +14 +14 1023.4 1001.3
00 13.09 Ю 2 10 км ясно +11.9 +7.7 75 +11 +11 1022.7 1000.4
03 13.09 Ю 1 10 км 6/3 600 м
[Sc Ci]
+9.8 +7.2 84 +9 +9 1021.9 999.4 +9.8
06 13.09 Ю 1 10 км 6/0
[Ci sp]
+15.9 +9.9 68 +17 +20 1020.8 998.9 +9.7
09 13.09 З 3 10 км 9/8 600 м
[Sc Ci sp]
+21.8 +10.4 48 +24 +25 комфорт 1019.7 998.2
12 13.09 ЮЗ 2 10 км 9/8 600 м
[Sc Ci sp]
+21.5 +10.1 48 +23 +24 комфорт 1018.5 997.1
15 13.09 З 1 10 км 9/9 600 м
[Sc]
+19.1 +10.3 57 +21 +21 комфорт 1016.9 995.3
18 13.09 Ю 1 10 км 9/9 600 м
[Sc]
+15.2 +10.5 74 +16 +16 1015.5 993.6 +22.9
21 13.09 Ю 3 10 км 10/10 600 м
[Sc]
+15.0 +9.4 69 +14 +14 1012.5 990.7
00 14.09 ЮЗ 4 10 км в посл. час ливневой дождь 10/10 600 м
[Cb cap]
+15.1 +10.3 73 +14 +14 1010.3 988.6
03 14.09 З 2
{12}
10 км {ливн. осадки} 8/8 600 м
[Cb cap]
+11.5 +7.3 75 +10 +10 1012.3 990.3 +11.4 0.3
06 14.09 З 5-10
{10}
10 км {ливн. осадки} 9/9 600 м
[Cb cap]
+12.4 +7.8 74 +10 +10 1014.0 992.0 +11.4 0.3
09 14.09 З 5
{11}
10 км {ливн. осадки} 8/6 600 м
[Cb cap Ci sp]
+15.5 +5.5 51 +14 +16 1015.6 993.7
12 14.09 З 4
{15}
10 км в посл. час ливневой дождь 6/3 600 м
[Cb cap Ci sp]
+14.8 +6.4 57 +14 +16 1016.3 994.4
15 14.09 З 3
{11}
10 км 3/3 600 м
[Cu med, cong]
+13.0 +3.6 53 +12 +12 1016.8 994.7 0.3
18 14.09 З 2 10 км ясно +8.8 +5.0 77 +7 +7 1017.8 995.4 +16.5 0.3
21 14.09 З 2 10 км 8/8 600 м
[Sc]
+7.7 +4.6 81 +6 +6 1017.7 995.2
00 15.09 З 1 10 км 6/6 600 м
[Sc]
+6.2 +5.1 93 +5 +5 1017.6 995.0
03 15.09 З 1 10 км 6/4 600 м
[Sc Ci sp]
+5.0 +4.6 97 +4 +4 1017.7 995.0 +5.0
06 15.09 З 2 10 км 9/9 600 м
[Sc]
+8.0 +5.7 85 +6 +6 1017.7 995.2 +5.0
09 15.09 З 3 10 км 9/9 600 м
[Sc]
+10.9 +4.5 65 +9 +10 1016.9 994.6
12 15.09 ЮЗ 3 10 км 9/9 600 м
[Sc]
+13.6 +3.6 51 +13 +13 1014.2 992.2
15 15.09 ЮЗ 3 10 км слаб. ливневой дождь 10/10 600 м
[Cb cap]
+10.3 +6.8 79 +8 +8 1011.1 989.0 0.3
18 15.09 ЮЗ 4-10
{11}
10 км слаб. ливневой дождь 10/10 300 м
[Cb cap]
+8.9 +8.3 96 +6 +6 1008.2 986.0 +14.1 5
21 15.09 Ю 3
{10}
10 км {ливн. осадки} 10/10 300 м
[Cb cap]
+9.6 +8.4 92 +7 +7 1004.0 982.0
00 16.09 Ю 3
{10}
10 км {ливн. осадки} 10/10 300 м
[Cb cap]
+10.1 +8.4 89 +8 +8 1000.9 979.0
03 16.09 ЮЗ 4 10 км 9/9 600 м
[Cb cap]
+10.4 +7.6 83 +8 +8 999.2 977.3 +8.6 5
06 16.09 ЮЗ 3 10 км 8/6 600 м
[Cb cap Ci sp]
+12.8 +8.2 74 +11 +12 998.2 976.5 +8.6 0.3
09 16.09 З 3
{11}
10 км слаб. ливневой дождь 9/9 600 м
[Cb cap]
+12.6 +8.7 77 +11 +12 998.0 976.3
12 16.09 З 3
{11}
10 км в посл. час ливневой дождь 8/8 600 м
[Cb cap Ci sp]
+11.6 +9.4 86 +10 +11 998.4 976.7
15 16.09 ЮЗ 2 4000 м ливневой дождь 9/9 600 м
[Cb cap]
+11.3 +9.1 86 +10 +10 998.7 976.9 6
18 16.09 Ю 3 10 км {ливн. осадки} 4/3 600 м
[Cb cap Ci sp]
+9.8 +8.4 91 +7 +7 998.8 976.9 +14.6 6
21 16.09 ЮЗ 3 10 км {ливн. осадки} 5/4 600 м
[Cb cap Ci sp]
+8.8 +6.8 87 +6 +6 998.8 976.8
00 17.09 ЮЗ 3 10 км {ливн. осадки} 3/0
[Ci sp]
+8.1 +7.3 95 +5 +5 997.9 975.9
03 17.09 ЮЗ 2 10 км 9/9 600 м
[Cb cap]
+8.7 +6.6 87 +7 +7 998.0 976.0 +7.9 1
06 17.09 ЮЗ 3 10 км 10/10 600 м
[Cb cap]
+9.5 +6.3 80 +7 +7 997.9 976.0 +7.9 0.4
09 17.09 З 4 10 км 9/9 600 м
[Cb cap]
+11.0 +5.3 68 +9 +9 998.2 976.4
12 17.09 З 3
{10}
10 км 9/9 600 м
[Cb cap]
+12.7 +5.9 63 +11 +12 998.6 976.9

 

Местоположение метеостанции Можайск (Московская область, Россия): широта 55.52 долгота 36.00 высота над уровнем моря 185 м.

В архиве по умолчанию представлена погода в Можайске за последнюю неделю. Архивные данные за месяц целиком и за предыдущие месяцы, начиная с января 2011 года, Вы можете получить, выбрав интересующий диапазон дат из раскрывающегося списка и нажав кнопку "Ввод!".


*Определитесь, кто Вы:
робот инопланетянин человек

Внимание! Время в таблицах - всемирное. Для получения местного времени необходимо прибавить поправку, которая равна 3 ч.

Смотрите также архив погоды в соседних городах и на ближайших метеорологических станциях:

Погода в Наро-Фоминске (Московская область, Россия) (47 км)
Погода в Волоколамске (Московская область, Россия) (56 км)
Погода в Обнинске (Калужская область, Россия) (60 км)
Погода в Гагарине (Смоленская область, Россия) (61 км)
Погода в Малоярославце (Калужская область, Россия) (63 км)
Погода в Шаховской (Московская область, Россия) (65 км)
Погода в Ново-Иерусалиме (Московская область, Россия) (67 км)
Погода в Толстопальцево (город Москва, Россия) (77 км)
Погода в Михайловском (город Москва, Россия) (78 км)
Погода в Подмосковной (Московская область, Россия) (79 км)

Пояснения к столбцам:

Ветер - указаны скорость ветра в м/с - средняя за 10 мин, порывы в срок и между сроками (в фигурных скобках) и направление, откуда дует ветер: С - северный, СВ - северо-восточный, В - восточный, ЮВ - юго-восточный, Ю - южный, ЮЗ - юго-западный, З - западный, СЗ - северо-западный.
Видимость - горизонтальная дальность видимости в метрах или километрах. При видимости от 1 до 10 км при отсутствии осадков обычно наблюдается дымка, при ухудшении видимости до 1 км и менее - туман. В сухую погоду видимость может ухудшаться дымом, пылью или мглою.
Явления - указаны атмосферные явления, наблюдавшиеся в срок или в последний час перед сроком; фигурными скобками обозначены явления, наблюдавшиеся между сроками (за 1-3 часа до срока); квадратными скобками обозначены град или гололедные отложения с указанием их диаметра в мм.
Облачность - указаны через наклонную черту общая и нижняя облачность в баллах и высота нижней границы облаков в метрах; квадратными скобками обозначены формы облаков: Ci - перистые, Cs - перисто-слоистые, Cc - перисто-кучевые, Ac - высококучевые, As - высокослоистые, Sc - слоисто-кучевые, Ns - слоисто-дождевые, Cu - кучевые, Cb - кучево-дождевые. Подробнее классификацию облаков см. в Атласе облаков (PDF).
T - Температура воздуха - температура, измеренная на высоте 2 м над землей.
Td - Температура точки росы - температура, при понижении до которой содержащийся в воздухе водяной пар достигнет насыщения.
f - Относительная влажность воздуха - влажноcть воздуха, измеренная на высоте 2 м над землей.
Te - Эффективная температура - температура, которую ощущает одетый по сезону человек в тени. Характеристика душности погоды. При расчете учитывается влияние влажности воздуха и скорости ветра на теплоощущения человека.
Tes - Эффективная температура на солнце - температура, которую ощущает человек, с поправкой на солнечный нагрев. Характеристика знойности погоды. Зависит от высоты солнца над горизонтом, облачности и скорости ветра. Ночью, в пасмурную погоду, а также при ветре 12 м/с и более поправка равна нулю.
P - Атмосферное давление - приведенное к уровню моря атмосферное давление.
Po - Атмосферное давление - измеренное на уровне метеостанции атмосферное давление.
Tmin - Минимальная температура - минимум температуры воздуха на высоте 2 м над землей.
Tmax - Максимальная температура - максимум температуры воздуха на высоте 2 м над землей.
R - Количество осадков - Количество выпавших осадков за период времени, мм. При наведении курсора мыши на число - период времени, за который выпало указанное количество осадков.
R24 - Количество осадков - Количество выпавших осадков за 24 часа, мм.
S - Снежный покров - Высота снежного покрова, см. При наведении курсора мыши на число - состояние снежного покрова и степень покрытия местности в баллах.